Starlink 5587

operational
NORAD ID: 57245 Int'l Des: 2023-094 Owner: SPXS Country: US Constellation: starlink
LEOCIRCULAR

Über Starlink 5587

Beschreibung wird geladen...

Live-Position

3D-Globus wird geladen...

Nächste Überflüge

Höhenverlauf

Altitude vs Time

uPlot chart will show altitude changes over time

Zweizeiliger Elementsatz

1 57245U 23094AD 25307.50385695 .00001219 00000-0 10529-3 0 9992
2 57245 43.0042 343.3853 0001264 269.7574 90.3124 15.02541230128283
Epoch: 3. Nov. 2025 • Age: 25 hours

Aktueller Status

Höhe 559.5 km
Geschwindigkeit 7.58 km/s
Subsatellitenpunkt -5.78°S, 83.63°E
Startdatum 7. Juli 2023
Alter 2.3 years
Typ internet

Technische Details

Klassifizierung Payload
Masse 305.00 kg
Trockenmasse 290.00 kg
Gesamtmasse 305.00 kg
Länge 0.20 m
Durchmesser 2.80 m
Spannweite 9.00 m
Form Box + pan
Hersteller SPXS
Bus-Typ Starlink
Phasenstatus In Orbit
Besitzer/Staat SPXS/US

Große Konstellationen

Loading constellations...